Other Surface Observations
Issued by NWS

Home | Current Version | Previous Version | Text Only | Print | Product List | Glossary On
Versions: 1 2 3 4 5 6 7 8 9 10 11 12 13 14 15 16 17 18 19 20 21 22 23 24 25 26 27 28 29 30 31 32 33 34 35 36 37 38 39 40 41 42 43 44 45 46 47 48 49 50
546
SXUS52 KTAE 181705
OSOTAE
OSOTAE
North Florida/South Alabama/Southwest Georgia Weather Roundup
National Weather Service Tallahassee Florida
1200 PM EST SAT NOV 18 2017

Note: "fair" indicates few or no clouds below 12,000 feet with no
significant weather and/or obstructions to visibility.

!FLZ017-115-028-034-025-181800
...North Florida...

CITY           SKY/WX    TMP DP  RH WIND       PRES   REMARKS
TALLAHASSEE    SUNNY     70  59  68 SW9       30.01F
APALACHICOLA   SUNNY     74  61  63 S7        30.02F
PERRY          PTSUNNY   74  59  60 SW9       30.02F
CROSS CITY     MOSUNNY   75  57  53 S13       30.07F
JACKSONVILLE   MOSUNNY   78  55  44 SW14      30.00F
$$

!FLZ112-006-005-002-011-181800
...Florida Panhandle...

CITY           SKY/WX    TMP DP  RH WIND       PRES   REMARKS
MARIANNA       SUNNY     74  55  51 S13       29.98F
BONIFAY        NOT AVBL
PANAMA CITY NW FAIR      74  60  61 SE12      29.99F
TYNDALL AFB    SUNNY     74  58  58 S18       30.00F
TYND DRONE APT FAIR      74  59  60 S13       30.00F
DE FUNIAK SPR  FAIR      73  61  65 S13       29.98F
EGLIN AFB      PTSUNNY   76  64  65 S12       29.97F
DESTIN         CLOUDY    79  64  60 VRB6      29.97F
HURLBURT       NOT AVBL
CRESTVIEW      CLOUDY    73  62  68 SE8G17    29.97F
PENSACOLA      CLOUDY    76  64  66 S16       29.96F
$$

!ALZ063-066-181800
...South Alabama...

CITY           SKY/WX    TMP DP  RH WIND       PRES   REMARKS
DOTHAN         MOSUNNY   72  58  61 S12       30.00F
OZARK CAIRNS   SUNNY     73  59  60 S10       29.96F
FT RUCKER HELI   N/A    N/A N/A N/A MISG        N/A
RUCKER HELI 3    N/A     72  59  64 S12G17    29.95F
RUCKER HELI 2    N/A    N/A N/A N/A S7        29.96F
FLORALA APT    PTSUNNY   73  61  65 S12       29.97F
ANDALUSIA      CLOUDY    75  61  61 S10G17    29.94F
TROY           MOSUNNY   71  59  65 S10       29.96F
EUFALA         FAIR      72  55  55 S10       29.96F
MOBILE         PTSUNNY   77  62  59 SW17G26   29.94F
$$

!GAZ120>161-181800
...Southwest and South Central Georgia...

CITY           SKY/WX    TMP DP  RH WIND       PRES   REMARKS
THOMASVILLE    FAIR      72  55  56 SW8       30.02F
BAINBRIDGE     SUNNY     73  59  60 SW6       30.00F
MOODY AFB      MOSUNNY   74  56  53 SW14      29.99F
VALDOSTA       MOSUNNY   72  58  61 VRB6      30.01F
MOULTRIE       SUNNY     70  54  56 SW7       30.01F
BLAKELY        SUNNY     73  55  53 S7        29.99F
ALBANY         SUNNY     70  52  52 S9        30.02F
TIFTON         FAIR      70  55  59 SW8       30.00F
FITZGERALD     FAIR      73  58  59 S10G17    30.02F
CORDELE        FAIR      73  53  48 W12       30.01F
AMERICUS       FAIR      66  48  52 SW5       30.00F
HOMERVILLE     FAIR      72  55  56 S9        30.01F
$$

!GMZ750-755-770-775-181800
...Coastal and Buoy Obs...

STATION/POSITION TIME  TEMP    WIND        PRES    VSBY  WAVE
                       AIR SEA DIR/SP/G                  HT/PER
                 (UTC) (F)     (DEG/KT/KT) (MB)    (MI)  (FT/S)
KEATON BEACH     1700   64     200/  5/  6 1016.6F
CEDAR KEY        1600   64     130/  3/  4 1018.0F
C TOWER          1700   71     210/  9/ 10 1016.9F
APALACHICOLA BUO 1550   72 76  180/  6/  8 1017.0          0
PANAMA CITY BUOY 1550   73 77  190/  8/ 12 1016.6          1
MOBILE BUOY      1650   76 78  200/ 16/ 19 1014.8F         4/ 5
ORANGE BCH AL BU NOT AVBL
$$




USA.gov is the U.S. government's official web portal to all federal, state and local government web resources and services.